EW4944 Weather Reports


time (UTC)temp
C
wind
direction
speed
KPH
gust
KPH
rain 1hr
cm
rain 24hr
cm
rain mn
cm
humidity
%
barometer
mb
20260504175056 20 170 14.5 40.2 0.00 0.00 0.00 41 1010.1
20260504174609 20 229 14.5 33.8 0.00 0.00 0.00 40 1010.1
20260504174057 20 251 9.7 37.0 0.00 0.00 0.00 42 1010.2
20260504173558 20 240 17.7 38.6 0.00 0.00 0.00 40 1010.2
20260504173103 20 235 19.3 38.6 0.00 0.00 0.00 39 1010.3
20260504172557 20 241 12.9 37.0 0.00 0.00 0.00 38 1010.3
20260504172055 20 171 17.7 37.0 0.00 0.00 0.00 41 1010.4
20260504171559 20 271 12.9 37.0 0.00 0.00 0.00 41 1010.5
20260504171059 20 206 16.1 37.0 0.00 0.00 0.00 40 1010.6
20260504170557 20 243 12.9 33.8 0.00 0.00 0.00 40 1010.6
20260504151056 18 261 14.5 32.2 0.00 0.00 0.00 44 1011.9
20260504150557 18 223 12.9 32.2 0.00 0.00 0.00 49 1011.9
20260504141055 16 323 9.7 25.7 0.00 0.00 0.00 47 1012.0
20260504140556 16 205 11.3 25.7 0.00 0.00 0.00 49 1012.0
20260504130558 16 230 4.8 17.7 0.00 0.00 0.00 52 1012.5
20260504110557 7 288 3.2 11.3 0.00 0.00 0.00 71 1012.8
20260504100557 5 0.0 0.0 0.00 0.00 0.00 77 1012.4
20260504081609 5 0.0 0.0 0.00 0.00 0.00 74 1011.9
20260504081059 5 0.0 0.0 0.00 0.00 0.00 75 1011.8
20260504080557 5 0.0 0.0 0.00 0.00 0.00 75 1011.8
20260504050553 5 0.0 0.0 0.00 0.00 0.00 72 1011.3
20260504045556 5 0.0 0.0 0.00 0.00 0.00 70 1011.5
20260504045053 5 0.0 0.0 0.00 0.00 0.00 70 1011.4
20260504044559 5 0.0 0.0 0.00 0.00 0.00 70 1011.4
20260504044053 5 0.0 0.0 0.00 0.00 0.00 69 1011.4
20260504043553 5 0.0 0.0 0.00 0.00 0.00 69 1011.3
20260504043058 5 0.0 0.0 0.00 0.00 0.00 69 1011.4
20260504042557 5 0.0 0.0 0.00 0.00 0.00 68 1011.4
20260504042100 5 0.0 0.0 0.00 0.00 0.00 67 1011.4
20260504041558 5 0.0 0.0 0.00 0.00 0.00 67 1011.3
20260504041056 5 0.0 0.0 0.00 0.00 0.00 67 1011.3
20260504040557 5 0.0 0.0 0.00 0.00 0.00 69 1011.3
20260504040105 5 0.0 0.0 0.00 0.00 0.00 68 1011.3
20260504035556 5 0.0 0.0 0.00 0.00 0.00 67 1011.2
20260504035056 6 0.0 0.0 0.00 0.00 0.00 66 1011.2
20260504034601 6 0.0 0.0 0.00 0.00 0.00 65 1011.2
20260504034055 6 0.0 0.0 0.00 0.00 0.00 65 1011.3
20260504033555 6 0.0 0.0 0.00 0.00 0.00 65 1011.1
20260504033126 6 0.0 0.0 0.00 0.00 0.00 65 1011.2
20260504032554 6 0.0 0.0 0.00 0.00 0.00 63 1011.1
20260504032056 6 0.0 0.0 0.00 0.00 0.00 62 1010.9
20260504031601 6 0.0 0.0 0.00 0.00 0.00 62 1010.9
20260504031053 6 0.0 0.0 0.00 0.00 0.00 63 1011.0
20260504030556 6 0.0 0.0 0.00 0.00 0.00 64 1011.0
20260504030104 6 0.0 0.0 0.00 0.00 0.00 63 1010.9
20260504025556 7 0.0 0.0 0.00 0.00 0.00 61 1011.0
20260504025057 7 0.0 0.0 0.00 0.00 0.00 57 1011.0
20260504024556 7 0.0 0.0 0.00 0.00 0.00 58 1011.1
20260504024057 7 0.0 0.0 0.00 0.00 0.00 59 1011.1
20260504023556 7 0.0 0.0 0.00 0.00 0.00 58 1011.1
20260504023104 7 0.0 0.0 0.00 0.00 0.00 56 1011.1
20260504022558 7 0.0 0.0 0.00 0.00 0.00 58 1011.1
20260504022053 7 0.0 0.0 0.00 0.00 0.00 54 1011.2
20260504021556 7 0.0 0.0 0.00 0.00 0.00 55 1011.1
20260504021053 7 0.0 0.0 0.00 0.00 0.00 54 1011.1
20260504020553 7 0.0 0.0 0.00 0.00 0.00 55 1011.0
20260504015553 8 0.0 0.0 0.00 0.00 0.00 52 1011.1
20260504015054 8 0.0 0.0 0.00 0.00 0.00 52 1011.0
20260504014555 8 0.0 0.0 0.00 0.00 0.00 53 1011.1
20260504014053 8 0.0 0.0 0.00 0.00 0.00 56 1011.1
20260504013553 8 0.0 0.0 0.00 0.00 0.00 58 1011.0
20260504013109 8 0.0 0.0 0.00 0.00 0.00 56 1010.9
20260504012553 8 0.0 0.0 0.00 0.00 0.00 58 1010.9
20260504012053 8 0.0 0.0 0.00 0.00 0.00 55 1010.7
20260504011557 8 0.0 0.0 0.00 0.00 0.00 53 1010.7
20260504011058 8 0.0 0.0 0.00 0.00 0.00 56 1010.7
20260504010558 8 0.0 0.0 0.00 0.00 0.00 54 1010.6
20260504010113 9 0.0 0.0 0.00 0.00 0.00 52 1010.5
20260504005601 9 0.0 0.0 0.00 0.00 0.00 54 1010.4
20260504005059 9 0.0 0.0 0.00 0.00 0.00 52 1010.4
20260504004624 9 0.0 0.0 0.00 0.00 0.00 50 1010.3
20260504004059 9 0.0 0.0 0.00 0.00 0.00 53 1010.2
20260504003601 9 0.0 0.0 0.00 0.00 0.00 53 1010.2
20260504003057 9 0.0 0.0 0.00 0.00 0.00 51 1010.2
20260504002558 9 0.0 0.0 0.00 0.00 0.00 52 1010.1
20260504002058 9 0.0 0.0 0.00 0.00 0.00 55 1010.1
20260504001612 9 0.0 0.0 0.00 0.00 0.00 53 1010.0
20260504001058 10 0.0 0.0 0.00 0.00 0.00 50 1009.9
20260504000558 10 0.0 0.0 0.00 0.00 0.00 48 1009.9
20260504000058 10 0.0 0.0 0.00 0.00 0.00 47 1009.9
20260503235558 10 0.0 0.0 0.00 0.00 0.00 46 1009.8
20260503235058 10 0.0 0.0 0.00 0.00 0.00 46 1009.6
20260503234556 10 0.0 0.0 0.00 0.00 0.00 45 1009.6
20260503234058 11 0.0 0.0 0.00 0.00 0.00 42 1009.6
20260503233558 11 1.6 3.2 0.00 0.00 0.00 43 1009.5
20260503233059 11 1.6 4.8 0.00 0.00 0.00 42 1009.5
20260503232557 11 294 1.6 6.4 0.00 0.00 0.00 42 1009.4
20260503232057 11 294 1.6 9.7 0.00 0.00 0.00 41 1009.3
20260503231559 12 284 3.2 11.3 0.00 0.00 0.00 41 1009.3
20260503231059 12 292 4.8 12.9 0.00 0.00 0.00 43 1009.2
20260503230559 12 297 3.2 12.9 0.00 0.00 0.00 42 1009.3
20260503230103 12 321 4.8 11.3 0.00 0.00 0.00 40 1009.2
20260503225601 12 296 3.2 11.3 0.00 0.00 0.00 40 1009.1
20260503225058 12 16 1.6 14.5 0.00 0.00 0.00 40 1009.0
20260503224556 12 338 3.2 17.7 0.00 0.00 0.00 39 1009.0
20260503224058 12 298 6.4 17.7 0.00 0.00 0.00 39 1009.0
20260503223558 12 272 8.0 20.9 0.00 0.00 0.00 39 1008.8
20260503223100 12 316 8.0 20.9 0.00 0.00 0.00 41 1009.0
20260503222557 13 295 9.7 19.3 0.00 0.00 0.00 40 1009.0
20260503222057 13 233 9.7 22.5 0.00 0.00 0.00 39 1008.9
20260503221559 13 302 9.7 27.4 0.00 0.00 0.00 39 1008.9
20260503221058 13 282 12.9 27.4 0.00 0.00 0.00 39 1008.8
20260503220558 13 333 9.7 25.7 0.00 0.00 0.00 36 1008.8
20260503220057 13 285 12.9 25.7 0.00 0.00 0.00 37 1008.8
20260503215554 13 267 8.0 27.4 0.00 0.00 0.00 39 1008.9
20260503215057 13 22 8.0 29.0 0.00 0.00 0.00 40 1009.0
20260503214600 13 280 9.7 29.0 0.00 0.00 0.00 38 1008.9
20260503214101 13 289 14.5 29.0 0.00 0.00 0.00 39 1008.9
20260503213558 13 298 9.7 27.4 0.00 0.00 0.00 40 1008.8
20260503213107 13 301 12.9 37.0 0.00 0.00 0.00 39 1008.8
20260503212558 13 280 12.9 37.0 0.00 0.00 0.00 39 1008.7
20260503212059 13 296 12.9 38.6 0.00 0.00 0.00 39 1008.8
20260503211557 13 303 17.7 38.6 0.00 0.00 0.00 40 1008.7
20260503211056 13 294 9.7 25.7 0.00 0.00 0.00 41 1008.7
20260503210600 13 326 11.3 25.7 0.00 0.00 0.00 39 1008.8
20260503210104 13 309 6.4 25.7 0.00 0.00 0.00 43 1008.8
20260503205558 13 325 11.3 25.7 0.00 0.00 0.00 43 1008.8
20260503205059 13 290 4.8 22.5 0.00 0.00 0.00 43 1008.7
20260503204609 13 330 9.7 20.9 0.00 0.00 0.00 42 1008.8
20260503204054 13 311 8.0 22.5 0.00 0.00 0.00 39 1008.8
20260503203600 14 312 9.7 24.1 0.00 0.00 0.00 39 1008.8
20260503203106 13 274 9.7 32.2 0.00 0.00 0.00 41 1008.7
20260503202556 13 286 9.7 40.2 0.00 0.00 0.00 39 1008.8
20260503202058 13 45 16.1 40.2 0.00 0.00 0.00 42 1008.8
20260503201558 14 242 9.7 24.1 0.00 0.00 0.00 40 1008.8
20260503201058 13 288 12.9 24.1 0.00 0.00 0.00 39 1008.8
20260503200558 14 340 9.7 25.7 0.00 0.00 0.00 39 1009.0
20260503200101 14 308 11.3 25.7 0.00 0.00 0.00 38 1008.9
20260503195559 15 275 14.5 25.7 0.00 0.00 0.00 43 1008.9
20260503195058 15 315 9.7 29.0 0.00 0.00 0.00 41 1008.9
20260503194558 14 291 8.0 33.8 0.00 0.00 0.00 40 1009.0
20260503194055 14 300 16.1 33.8 0.00 0.00 0.00 40 1008.9
20260503193558 13 281 9.7 27.4 0.00 0.00 0.00 45 1009.0
20260503193102 13 295 14.5 38.6 0.00 0.00 0.00 43 1009.1
20260503192558 13 281 14.5 38.6 0.00 0.00 0.00 41 1009.1
20260503192058 13 296 12.9 27.4 0.00 0.00 0.00 42 1009.0
20260503191620 14 283 9.7 19.3 0.00 0.00 0.00 41 1009.0
20260503191056 14 290 8.0 20.9 0.00 0.00 0.00 39 1008.9
20260503190556 15 327 9.7 22.5 0.00 0.00 0.00 40 1009.1
20260503190059 15 324 8.0 27.4 0.00 0.00 0.00 42 1008.9
20260503185559 13 287 11.3 27.4 0.00 0.00 0.00 41 1008.8
20260503185057 13 283 9.7 24.1 0.00 0.00 0.00 41 1009.0
20260503184601 13 318 11.3 30.6 0.00 0.00 0.00 43 1008.9
20260503184103 14 288 12.9 30.6 0.00 0.00 0.00 39 1008.8
20260503183556 14 281 12.9 25.7 0.00 0.00 0.00 43 1008.9
20260503183114 13 295 8.0 27.4 0.00 0.00 0.00 42 1008.7
20260503182556 14 296 12.9 27.4 0.00 0.00 0.00 41 1008.9
20260503182056 14 298 8.0 24.1 0.00 0.00 0.00 43 1008.7
20260503181601 13 285 9.7 24.1 0.00 0.00 0.00 40 1008.8
20260503181056 14 265 9.7 24.1 0.00 0.00 0.00 42 1008.9
20260503180559 14 292 9.7 35.4 0.00 0.00 0.00 39 1008.9
20260503180059 15 313 12.9 35.4 0.00 0.00 0.00 43 1008.8
20260503175555 14 288 14.5 35.4 0.00 0.00 0.00 44 1008.8